• In France
  • List of Countries
  • For 7 days
  • Water Temperature
  • Satellite Maps
  • Weather Map
  • Weather Widgets
  • user-avatar
    Login

    Hourly Weather Djambala

    Today, 16 December, Saturday

    Time Temperature Precipitation Wind Pressure Humidity
    00:00 +24°C° 0.6 mm 1 mps 694 mmHg 80%
    01:00 +23°C° 0.6 mm 1 mps 694 mmHg 85%
    02:00 +23°C° 0.6 mm 1 mps 694 mmHg 87%
    03:00 +23°C° 0.6 mm 1 mps 693 mmHg 89%
    04:00 +23°C° 0.6 mm 2 mps 693 mmHg 91%
    05:00 +23°C° 1.4 mm 2 mps 694 mmHg 91%
    06:00 +23°C° 1.4 mm 2 mps 694 mmHg 91%
    07:00 +23°C° 1.4 mm 2 mps 695 mmHg 90%
    08:00 +25°C° 1 mm 2 mps 695 mmHg 83%
    09:00 +27°C° 1 mm 2 mps 695 mmHg 76%
    10:00 +28°C° 1 mm 2 mps 695 mmHg 70%
    11:00 +30°C° 0.1 mm 1 mps 695 mmHg 64%
    12:00 +31°C° 0.1 mm 1 mps 695 mmHg 59%
    13:00 +31°C° 0.1 mm 0 mps 695 mmHg 53%
    14:00 +30°C° 0.7 mm 0 mps 694 mmHg 56%
    15:00 +29°C° 0.7 mm 0 mps 693 mmHg 59%
    16:00 +28°C° 0.7 mm 0 mps 693 mmHg 61%
    17:00 +28°C° 0.5 mm 1 mps 693 mmHg 67%
    18:00 +27°C° 0.5 mm 1 mps 693 mmHg 74%
    19:00 +25°C° 0.5 mm 1 mps 693 mmHg 80%
    20:00 +25°C° 0.2 mm 1 mps 693 mmHg 83%
    21:00 +24°C° 0.2 mm 2 mps 694 mmHg 85%
    22:00 +24°C° 0.2 mm 2 mps 695 mmHg 88%
    23:00 +23°C° 0 mm 2 mps 694 mmHg 90%

    Tomorrow, 17 December, Sunday

    Time Temperature Precipitation Wind Pressure Humidity
    00:00 +23°C° 0 mm 2 mps 694 mmHg 91%
    01:00 +23°C° 0 mm 2 mps 694 mmHg 92%
    02:00 +23°C° 0 mm 2 mps 694 mmHg 93%
    03:00 +21°C° 0 mm 2 mps 693 mmHg 94%
    04:00 +21°C° 0 mm 2 mps 693 mmHg 95%
    05:00 +21°C° 0 mm 2 mps 694 mmHg 94%
    06:00 +23°C° 0 mm 2 mps 694 mmHg 93%
    07:00 +22°C° 0 mm 3 mps 694 mmHg 91%
    08:00 +25°C° 0 mm 3 mps 695 mmHg 84%
    09:00 +26°C° 0 mm 3 mps 695 mmHg 77%
    10:00 +28°C° 0 mm 3 mps 696 mmHg 70%
    11:00 +29°C° 0.8 mm 3 mps 695 mmHg 68%
    12:00 +29°C° 0.8 mm 3 mps 694 mmHg 67%
    13:00 +30°C° 0.8 mm 3 mps 694 mmHg 65%
    14:00 +29°C° 0.9 mm 2 mps 693 mmHg 67%
    15:00 +29°C° 0.9 mm 2 mps 693 mmHg 69%
    16:00 +29°C° 0.9 mm 2 mps 692 mmHg 70%
    17:00 +27°C° 1.1 mm 2 mps 693 mmHg 77%
    18:00 +26°C° 1.1 mm 2 mps 693 mmHg 83%
    19:00 +24°C° 1.1 mm 2 mps 694 mmHg 90%
    20:00 +24°C° 0.6 mm 2 mps 694 mmHg 90%
    21:00 +23°C° 0.6 mm 2 mps 695 mmHg 90%
    22:00 +23°C° 0.6 mm 2 mps 695 mmHg 91%
    23:00 +23°C° 0 mm 2 mps 695 mmHg 91%

    Day after tomorrow, 18 December, Monday

    Time Temperature Precipitation Wind Pressure Humidity
    00:00 +23°C° 0 mm 2 mps 695 mmHg 92%
    01:00 +21°C° 0 mm 2 mps 694 mmHg 92%
    02:00 +21°C° 0 mm 2 mps 694 mmHg 93%
    03:00 +21°C° 0 mm 2 mps 694 mmHg 95%
    04:00 +21°C° 0 mm 2 mps 693 mmHg 96%
    05:00 +21°C° 0 mm 2 mps 694 mmHg 95%
    06:00 +21°C° 0 mm 2 mps 694 mmHg 94%
    07:00 +21°C° 0 mm 3 mps 695 mmHg 93%
    08:00 +22°C° 0 mm 3 mps 695 mmHg 91%
    09:00 +23°C° 0 mm 2 mps 696 mmHg 89%
    10:00 +24°C° 0 mm 2 mps 696 mmHg 86%
    11:00 +25°C° 0.6 mm 2 mps 695 mmHg 84%
    12:00 +25°C° 0.6 mm 2 mps 695 mmHg 81%
    13:00 +26°C° 0.6 mm 2 mps 694 mmHg 79%
    14:00 +27°C° 0.5 mm 2 mps 693 mmHg 76%
    15:00 +27°C° 0.5 mm 2 mps 693 mmHg 72%
    16:00 +28°C° 0.5 mm 2 mps 692 mmHg 69%
    17:00 +26°C° 0.3 mm 2 mps 693 mmHg 76%
    18:00 +25°C° 0.3 mm 2 mps 693 mmHg 82%
    19:00 +23°C° 0.3 mm 2 mps 693 mmHg 89%
    20:00 +23°C° 0.2 mm 1 mps 694 mmHg 91%
    21:00 +23°C° 0.2 mm 1 mps 694 mmHg 92%
    22:00 +22°C° 0.2 mm 1 mps 695 mmHg 94%
    23:00 +22°C° 0 mm 1 mps 694 mmHg 95%

    19 December, Tuesday

    Time Temperature Precipitation Wind Pressure Humidity
    00:00 +22°C° 0 mm 1 mps 694 mmHg 95%
    01:00 +22°C° 0 mm 1 mps 694 mmHg 96%
    02:00 +21°C° 0 mm 1 mps 694 mmHg 96%
    03:00 +21°C° 0 mm 1 mps 693 mmHg 97%
    04:00 +21°C° 0 mm 1 mps 693 mmHg 97%
    05:00 +20°C° 0 mm 2 mps 694 mmHg 96%
    06:00 +21°C° 0 mm 2 mps 694 mmHg 95%
    07:00 +21°C° 0 mm 2 mps 694 mmHg 94%
    08:00 +23°C° 0 mm 2 mps 695 mmHg 87%
    09:00 +25°C° 0 mm 3 mps 695 mmHg 81%
    10:00 +26°C° 0 mm 3 mps 695 mmHg 74%
    11:00 +27°C° 0.2 mm 3 mps 695 mmHg 70%
    12:00 +28°C° 0.2 mm 3 mps 694 mmHg 65%
    13:00 +29°C° 0.2 mm 2 mps 694 mmHg 61%
    14:00 +29°C° 0.3 mm 2 mps 693 mmHg 61%
    15:00 +29°C° 0.3 mm 2 mps 693 mmHg 62%
    16:00 +29°C° 0.3 mm 2 mps 692 mmHg 63%
    17:00 +27°C° 0.3 mm 1 mps 692 mmHg 69%
    18:00 +26°C° 0.3 mm 1 mps 693 mmHg 76%
    19:00 +24°C° 0.3 mm 1 mps 693 mmHg 82%
    20:00 +24°C° 0 mm 1 mps 693 mmHg 84%
    21:00 +23°C° 0 mm 1 mps 694 mmHg 86%
    22:00 +23°C° 0 mm 1 mps 694 mmHg 87%
    23:00 +23°C° 0 mm 1 mps 694 mmHg 88%

    20 December, Wednesday

    Time Temperature Precipitation Wind Pressure Humidity
    00:00 +23°C° 0 mm 1 mps 693 mmHg 88%
    01:00 +22°C° 0 mm 1 mps 693 mmHg 88%
    02:00 +22°C° 0.1 mm 1 mps 693 mmHg 89%
    03:00 +22°C° 0.1 mm 1 mps 693 mmHg 89%
    04:00 +21°C° 0.1 mm 2 mps 693 mmHg 90%
    05:00 +21°C° 0.1 mm 2 mps 693 mmHg 90%
    06:00 +23°C° 0.1 mm 2 mps 694 mmHg 89%
    07:00 +23°C° 0.1 mm 2 mps 694 mmHg 89%
    08:00 +25°C° 0.1 mm 2 mps 695 mmHg 83%
    09:00 +26°C° 0.1 mm 2 mps 695 mmHg 76%
    10:00 +28°C° 0.1 mm 3 mps 695 mmHg 69%
    11:00 +29°C° 0.7 mm 2 mps 695 mmHg 66%
    12:00 +30°C° 0.7 mm 2 mps 694 mmHg 62%
    13:00 +31°C° 0.7 mm 1 mps 694 mmHg 58%
    14:00 +30°C° 1.3 mm 1 mps 693 mmHg 62%
    15:00 +29°C° 1.3 mm 1 mps 693 mmHg 66%
    16:00 +28°C° 1.3 mm 1 mps 692 mmHg 70%
    17:00 +27°C° 0.7 mm 1 mps 693 mmHg 76%
    18:00 +25°C° 0.7 mm 1 mps 693 mmHg 82%
    19:00 +24°C° 0.7 mm 1 mps 693 mmHg 88%
    20:00 +23°C° 0.2 mm 1 mps 694 mmHg 89%
    21:00 +23°C° 0.2 mm 1 mps 694 mmHg 90%
    22:00 +23°C° 0.2 mm 1 mps 694 mmHg 91%
    23:00 +23°C° 0.2 mm 1 mps 694 mmHg 91%

    21 December, Thursday

    Time Temperature Precipitation Wind Pressure Humidity
    00:00 +22°C° 0.2 mm 1 mps 694 mmHg 91%
    01:00 +22°C° 0.2 mm 1 mps 694 mmHg 91%
    02:00 +22°C° 0.1 mm 1 mps 694 mmHg 92%
    03:00 +22°C° 0.1 mm 1 mps 694 mmHg 92%
    04:00 +21°C° 0.1 mm 1 mps 694 mmHg 93%
    05:00 +22°C° 0.1 mm 1 mps 694 mmHg 93%
    06:00 +22°C° 0.1 mm 1 mps 695 mmHg 92%
    07:00 +22°C° 0.1 mm 1 mps 695 mmHg 91%
    08:00 +24°C° 0.5 mm 2 mps 695 mmHg 83%
    09:00 +26°C° 0.5 mm 2 mps 696 mmHg 74%
    10:00 +28°C° 0.5 mm 2 mps 696 mmHg 66%
    11:00 +29°C° 0.6 mm 2 mps 695 mmHg 62%
    12:00 +30°C° 0.6 mm 1 mps 695 mmHg 59%
    13:00 +31°C° 0.6 mm 1 mps 694 mmHg 56%
    14:00 +30°C° 1.5 mm 1 mps 694 mmHg 59%
    15:00 +29°C° 1.5 mm 1 mps 693 mmHg 63%
    16:00 +27°C° 1.5 mm 0 mps 693 mmHg 66%
    17:00 +27°C° 0.7 mm 1 mps 693 mmHg 73%
    18:00 +26°C° 0.7 mm 1 mps 693 mmHg 79%
    19:00 +24°C° 0.7 mm 1 mps 694 mmHg 86%
    20:00 +24°C° 0.2 mm 1 mps 694 mmHg 87%
    21:00 +23°C° 0.2 mm 1 mps 694 mmHg 89%
    22:00 +23°C° 0.2 mm 1 mps 695 mmHg 90%
    23:00 +23°C° 0.4 mm 1 mps 695 mmHg 91%
    Show more

    XHprof extension not loaded